SARAL

Last updated on Wed Sep 09 2026 00:02:45 GMT+0000 (Coordinated Universal Time)

1 39086U 13009A 26251.62614727 .00000067 00000+0 40567-4 0 9998 2 39086 98.5565 77.1496 0002803 60.3323 299.8140 14.32906173707553
UTC large
Height (km)
Speed (km/s)
/
Latitude / Longitude
Inclination (degrees)
Orbital Period (minutes)
Azimuth
Elevation
Range (km)
Doppler Factor

Next 0 passes for location: London (51.5072 / 0.1276)

No passes found over London.
SARAL